This demonstration page uses our WeatherBlox Daily Observations layout. Learn more.

Left ArrowRight Arrow

Hourly Observations for May 31, 2015

Temp ( °F °C ) Dew Point ( °F °C ) Humidity (%) Winds ( mph kmh ) Pressure ( in mb ) Visibility ( mi km ) Precip ( " mm )
12:53 am 00:53 Clear 68 20 46 7.8 45 45 NW 3 6 29.81 1010 10 16 0.00 0.00
1:53 am 01:53 Clear 68 20 48 8.9 49 49 Calm 29.81 1010 10 16 0.00 0.00
2:53 am 02:53 Clear 68 20 48 8.9 49 49 N 3 6 29.80 1009 10 16 0.00 0.00
3:53 am 03:53 Clear 63 17.2 47 8.3 56 56 Calm 29.80 1009 10 16 0.00 0.00
4:53 am 04:53 Clear 63 17.2 49 9.4 60 60 Calm 29.80 1009 10 16 0.00 0.00
5:53 am 05:53 Sunny 60 15.6 48 8.9 65 65 Calm 29.81 1009 10 16 0.00 0.00
6:53 am 06:53 Sunny 63 17.2 49 9.4 60 60 Calm 29.82 1010 10 16 0.00 0.00
7:53 am 07:53 Sunny 67 19.4 48 8.9 51 51 Calm 29.83 1010 10 16 0.00 0.00
8:53 am 08:53 Sunny 72 22.2 47 8.3 41 41 Calm 29.82 1010 10 16 0.00 0.00
9:53 am 09:53 Sunny 74 23.3 49 9.4 41 41 WSW 5 7 29.82 1010 10 16 0.00 0.00
10:53 am 10:53 Sunny 77 25 47 8.3 35 35 W 5 7 29.82 1010 10 16 0.00 0.00
11:53 am 11:53 Sunny 81 27.2 47 8.3 30 30 VRB 5 7 29.80 1009 10 16 0.00 0.00
12:53 pm 12:53 Sunny 83 28.3 43 6.1 24 24 Calm 29.80 1009 10 16 0.00 0.00
1:53 pm 13:53 Sunny 85 29.4 43 6.1 23 23 S 8 13 29.78 1009 10 16 0.00 0.00
2:53 pm 14:53 Sunny 87 30.6 40 4.4 19 19 SSW 8 13 29.76 1008 10 16 0.00 0.00
3:53 pm 15:53 Sunny 87 30.6 39 3.9 18 18 S 10 17 29.75 1007 10 16 0.00 0.00
4:53 pm 16:53 Sunny 88 31.1 35 1.7 15 15 S 15 24 29.73 1007 10 16 0.00 0.00
5:53 pm 17:53 Sunny 87 30.6 40 4.4 19 19 S 13 20 29.72 1006 10 16 0.00 0.00
6:53 pm 18:53 Sunny 84 28.9 45 7.2 25 25 SSW 13 20 29.72 1007 10 16 0.00 0.00
7:53 pm 19:53 Sunny 81 27.2 48 8.9 32 32 S 13 20 29.73 1007 10 16 0.00 0.00
8:53 pm 20:53 Clear 79 26.1 35 1.7 20 20 S 17 28 29.73 1007 10 16 0.00 0.00
9:53 pm 21:53 Clear 77 25 41 5 28 28 S 10 17 29.77 1008 10 16 0.00 0.00
10:53 pm 22:53 Clear 75 23.9 42 5.6 31 31 SSW 12 19 29.78 1008 10 16 0.00 0.00
11:53 pm 23:53 Mostly Clear 73 22.8 42 5.6 33 33 SSW 13 20 29.80 1009 10 16 0.00 0.00

Powered by AerisWeather